Location: ????????
(38.4362°N, 22.8767°E)
Time: 14:30:11
(UTC+00:00)

Cosmos 1707 - Pass Details

Date: 23 April 2024
Orbit: 476 x 487 km, 82.5° (Epoch: 18 May)

Event Time Altitude Azimuth Distance (km) Brightness Sun altitude
Exits shadow 01:50:49 31° 159° (SSE) 876 3.7 -20.2°
Maximum altitude 01:52:19 57° 94° (E) 587 3.1 -19.9°
Drops below altitude 10° 01:55:57 10° 16° (NNE) 1,694 6.0 -19.4°
Sets 01:58:06 0° 12° (NNE) 2,582 7.0 -19.0°
